******** Week 359 almanac for PRN-1 ******** ID: 1 Health: 0 Eccentricity: 0.001550197601 Time of Applicability(s): 233472 Orbital Inclination(rad): 0.9583329256 Rate of Right Ascen(r/s): -8.137481816e-09 SQRT(A) (m 1/2): 5153.576172 Right Ascen at Week(rad): -3.021115616 Argument of Perigee(rad): 0.06094203071 Mean Anom(rad): 0.3991765554 Af0(s): 0.0002585102905 Af1(s/s): -7.275958e-12 week: 359 ******** Week 359 almanac for PRN-2 ******** ID: 2 Health: 0 Eccentricity: 0.01692867279 Time of Applicability(s): 233472 Orbital Inclination(rad): 0.9636359451 Rate of Right Ascen(r/s): -8.011762293e-09 SQRT(A) (m 1/2): 5153.54834 Right Ascen at Week(rad): 3.099580456 Argument of Perigee(rad): -0.8179772791 Mean Anom(rad): 1.841898969 Af0(s): 3.617636719e-05 Af1(s/s): 7.275958e-12 week: 359 ******** Week 359 almanac for PRN-3 ******** ID: 3 Health: 0 Eccentricity: 0.006461620331 Time of Applicability(s): 233472 Orbital Inclination(rad): 0.9931171384 Rate of Right Ascen(r/s): -7.657461821e-09 SQRT(A) (m 1/2): 5153.590332 Right Ascen at Week(rad): -2.034425917 Argument of Perigee(rad): 1.202053337 Mean Anom(rad): -1.756350329 Af0(s): 0.0004416531494 Af1(s/s): -1.091394e-11 week: 359 ******** Week 359 almanac for PRN-4 ******** ID: 4 Health: 0 Eccentricity: 0.003719329834 Time of Applicability(s): 233472 Orbital Inclination(rad): 0.9704849297 Rate of Right Ascen(r/s): -7.714607058e-09 SQRT(A) (m 1/2): 5153.686523 Right Ascen at Week(rad): -0.9634762557 Argument of Perigee(rad): -2.884195472 Mean Anom(rad): 1.236032359 Af0(s): 3.617636719e-05 Af1(s/s): 3.637979e-12 week: 359 ******** Week 359 almanac for PRN-5 ******** ID: 5 Health: 0 Eccentricity: 0.005386352539 Time of Applicability(s): 233472 Orbital Inclination(rad): 0.9796948065 Rate of Right Ascen(r/s): -7.817468486e-09 SQRT(A) (m 1/2): 5153.658203 Right Ascen at Week(rad): -2.094099867 Argument of Perigee(rad): 1.416932362 Mean Anom(rad): 1.893148758 Af0(s): -0.0001816355103 Af1(s/s): 0 week: 359 ******** Week 359 almanac for PRN-6 ******** ID: 6 Health: 0 Eccentricity: 0.003868579864 Time of Applicability(s): 233472 Orbital Inclination(rad): 0.9872268919 Rate of Right Ascen(r/s): -7.840326581e-09 SQRT(A) (m 1/2): 5153.588379 Right Ascen at Week(rad): -3.070744539 Argument of Perigee(rad): -0.5783437139 Mean Anom(rad): -0.4244070939 Af0(s): -0.0004831052368 Af1(s/s): 0 week: 359 ******** Week 359 almanac for PRN-7 ******** ID: 7 Health: 0 Eccentricity: 0.0204410553 Time of Applicability(s): 233472 Orbital Inclination(rad): 0.9512981856 Rate of Right Ascen(r/s): -7.851755628e-09 SQRT(A) (m 1/2): 5153.565918 Right Ascen at Week(rad): 0.04509925989 Argument of Perigee(rad): -1.993852575 Mean Anom(rad): -1.300071563 Af0(s): -0.0001213415649 Af1(s/s): -3.637979e-12 week: 359 ******** Week 359 almanac for PRN-8 ******** ID: 8 Health: 0 Eccentricity: 0.01155281067 Time of Applicability(s): 233472 Orbital Inclination(rad): 0.9434065735 Rate of Right Ascen(r/s): -8.023191341e-09 SQRT(A) (m 1/2): 5153.633301 Right Ascen at Week(rad): 2.092643784 Argument of Perigee(rad): 0.5217748018 Mean Anom(rad): 1.53084242 Af0(s): 0.0003851275757 Af1(s/s): -3.637979e-12 week: 359 ******** Week 359 almanac for PRN-9 ******** ID: 9 Health: 0 Eccentricity: 0.003366947174 Time of Applicability(s): 233472 Orbital Inclination(rad): 0.9646246437 Rate of Right Ascen(r/s): -7.794610391e-09 SQRT(A) (m 1/2): 5153.731934 Right Ascen at Week(rad): -1.027687733 Argument of Perigee(rad): 2.066784073 Mean Anom(rad): 2.128343666 Af0(s): 0.000607461499 Af1(s/s): 0 week: 359 ******** Week 359 almanac for PRN-10 ******** ID: 10 Health: 0 Eccentricity: 0.0109462738 Time of Applicability(s): 233472 Orbital Inclination(rad): 0.9926497536 Rate of Right Ascen(r/s): -7.657461821e-09 SQRT(A) (m 1/2): 5153.609863 Right Ascen at Week(rad): -2.036935114 Argument of Perigee(rad): -2.25606779 Mean Anom(rad): -2.745580684 Af0(s): -0.0004657707275 Af1(s/s): 0 week: 359 ******** Week 359 almanac for PRN-11 ******** ID: 11 Health: 0 Eccentricity: 0.002222061157 Time of Applicability(s): 233472 Orbital Inclination(rad): 0.9640853536 Rate of Right Ascen(r/s): -8.068907531e-09 SQRT(A) (m 1/2): 5153.522949 Right Ascen at Week(rad): -3.05182332 Argument of Perigee(rad): -2.293616988 Mean Anom(rad): 0.6359758515 Af0(s): -0.0003383997681 Af1(s/s): 1.455192e-11 week: 359 ******** Week 359 almanac for PRN-12 ******** ID: 12 Health: 0 Eccentricity: 0.009041786194 Time of Applicability(s): 233472 Orbital Inclination(rad): 0.9589561053 Rate of Right Ascen(r/s): -7.771752296e-09 SQRT(A) (m 1/2): 5153.724121 Right Ascen at Week(rad): 1.162714744 Argument of Perigee(rad): 1.558500887 Mean Anom(rad): -1.952383786 Af0(s): -0.0004800905395 Af1(s/s): 0 week: 359 ******** Week 359 almanac for PRN-13 ******** ID: 13 Health: 0 Eccentricity: 0.009990215301 Time of Applicability(s): 233472 Orbital Inclination(rad): 0.9761774365 Rate of Right Ascen(r/s): -7.634603726e-09 SQRT(A) (m 1/2): 5153.623535 Right Ascen at Week(rad): -0.8526468928 Argument of Perigee(rad): 0.9964808112 Mean Anom(rad): 1.281050726 Af0(s): 0.0005418918335 Af1(s/s): 0 week: 359 ******** Week 359 almanac for PRN-14 ******** ID: 14 Health: 0 Eccentricity: 0.006691932678 Time of Applicability(s): 233472 Orbital Inclination(rad): 0.9423339854 Rate of Right Ascen(r/s): -7.920329913e-09 SQRT(A) (m 1/2): 5153.594727 Right Ascen at Week(rad): 1.108160305 Argument of Perigee(rad): -2.753657677 Mean Anom(rad): -2.114877142 Af0(s): 0.0005818365723 Af1(s/s): 3.637979e-12 week: 359 ******** Week 359 almanac for PRN-15 ******** ID: 15 Health: 0 Eccentricity: 0.01661348343 Time of Applicability(s): 233472 Orbital Inclination(rad): 0.9424478355 Rate of Right Ascen(r/s): -8.011762293e-09 SQRT(A) (m 1/2): 5153.63916 Right Ascen at Week(rad): -1.171617525 Argument of Perigee(rad): 1.499764328 Mean Anom(rad): 0.5338710043 Af0(s): 0.0003074991211 Af1(s/s): 3.637979e-12 week: 359 ******** Week 359 almanac for PRN-16 ******** ID: 16 Health: 0 Eccentricity: 0.0150513649 Time of Applicability(s): 233472 Orbital Inclination(rad): 0.9580812569 Rate of Right Ascen(r/s): -7.794610391e-09 SQRT(A) (m 1/2): 5153.591309 Right Ascen at Week(rad): 1.179705379 Argument of Perigee(rad): 0.9292826405 Mean Anom(rad): 2.553851436 Af0(s): 0.0001695767212 Af1(s/s): 7.275958e-12 week: 359 ******** Week 359 almanac for PRN-17 ******** ID: 17 Health: 0 Eccentricity: 0.01267147064 Time of Applicability(s): 233472 Orbital Inclination(rad): 0.9591478529 Rate of Right Ascen(r/s): -7.920329913e-09 SQRT(A) (m 1/2): 5153.540527 Right Ascen at Week(rad): 2.197266067 Argument of Perigee(rad): -1.12378324 Mean Anom(rad): 1.455638038 Af0(s): -5.652557373e-05 Af1(s/s): -1.091394e-11 week: 359 ******** Week 359 almanac for PRN-18 ******** ID: 18 Health: 0 Eccentricity: 0.005738735199 Time of Applicability(s): 233472 Orbital Inclination(rad): 0.9721866896 Rate of Right Ascen(r/s): -8.000333246e-09 SQRT(A) (m 1/2): 5153.592773 Right Ascen at Week(rad): -3.075688781 Argument of Perigee(rad): -2.861387245 Mean Anom(rad): -0.531408246 Af0(s): -0.0003293556763 Af1(s/s): 1.091394e-11 week: 359 ******** Week 359 almanac for PRN-19 ******** ID: 19 Health: 0 Eccentricity: 0.01111412048 Time of Applicability(s): 233472 Orbital Inclination(rad): 0.9583568941 Rate of Right Ascen(r/s): -7.931758961e-09 SQRT(A) (m 1/2): 5153.669922 Right Ascen at Week(rad): 2.241165781 Argument of Perigee(rad): 2.928239746 Mean Anom(rad): -3.004380395 Af0(s): 0.0005464138794 Af1(s/s): 0 week: 359 ******** Week 359 almanac for PRN-20 ******** ID: 20 Health: 255 Eccentricity: 0.0003142356873 Time of Applicability(s): 233472 Orbital Inclination(rad): 0.9600406777 Rate of Right Ascen(r/s): -7.817468486e-09 SQRT(A) (m 1/2): 5153.644043 Right Ascen at Week(rad): -1.022051028 Argument of Perigee(rad): 1.203913513 Mean Anom(rad): 1.096371198 Af0(s): 1.130511475e-05 Af1(s/s): 2.546585e-11 week: 359 ******** Week 359 almanac for PRN-21 ******** ID: 21 Health: 0 Eccentricity: 0.0007200241089 Time of Applicability(s): 233472 Orbital Inclination(rad): 0.9625274043 Rate of Right Ascen(r/s): -7.977475151e-09 SQRT(A) (m 1/2): 5153.714355 Right Ascen at Week(rad): -2.027991886 Argument of Perigee(rad): -0.3612419895 Mean Anom(rad): -2.213215947 Af0(s): 0.0003180505615 Af1(s/s): 3.637979e-12 week: 359 ******** Week 359 almanac for PRN-22 ******** ID: 22 Health: 0 Eccentricity: 0.01210165024 Time of Applicability(s): 233472 Orbital Inclination(rad): 0.9575299826 Rate of Right Ascen(r/s): -7.783181343e-09 SQRT(A) (m 1/2): 5153.572266 Right Ascen at Week(rad): 1.183055719 Argument of Perigee(rad): -0.9942307729 Mean Anom(rad): 2.104045276 Af0(s): -3.316166992e-05 Af1(s/s): 3.637979e-12 week: 359 ******** Week 359 almanac for PRN-23 ******** ID: 23 Health: 0 Eccentricity: 0.006021976471 Time of Applicability(s): 233472 Orbital Inclination(rad): 0.9876643161 Rate of Right Ascen(r/s): -7.714607058e-09 SQRT(A) (m 1/2): 5153.662109 Right Ascen at Week(rad): -2.068998533 Argument of Perigee(rad): -2.738365806 Mean Anom(rad): -1.659787062 Af0(s): 0.0004876272827 Af1(s/s): 3.637979e-12 week: 359 ******** Week 359 almanac for PRN-24 ******** ID: 24 Health: 0 Eccentricity: 0.01788520813 Time of Applicability(s): 233472 Orbital Inclination(rad): 0.9352992454 Rate of Right Ascen(r/s): -8.080336578e-09 SQRT(A) (m 1/2): 5153.586914 Right Ascen at Week(rad): -0.06325124105 Argument of Perigee(rad): 1.134233859 Mean Anom(rad): -0.3178740756 Af0(s): -8.516519775e-05 Af1(s/s): 1.455192e-11 week: 359 ******** Week 359 almanac for PRN-25 ******** ID: 25 Health: 0 Eccentricity: 0.01294565201 Time of Applicability(s): 233472 Orbital Inclination(rad): 0.9473553756 Rate of Right Ascen(r/s): -7.886042771e-09 SQRT(A) (m 1/2): 5153.67041 Right Ascen at Week(rad): 1.068935937 Argument of Perigee(rad): 1.157134964 Mean Anom(rad): -2.091165979 Af0(s): 0.0003489512085 Af1(s/s): -3.637979e-12 week: 359 ******** Week 359 almanac for PRN-26 ******** ID: 26 Health: 0 Eccentricity: 0.01099967957 Time of Applicability(s): 233472 Orbital Inclination(rad): 0.9281746237 Rate of Right Ascen(r/s): -8.103194673e-09 SQRT(A) (m 1/2): 5153.652344 Right Ascen at Week(rad): 0.994501167 Argument of Perigee(rad): 0.7094428953 Mean Anom(rad): -2.912765115 Af0(s): -0.0002622786621 Af1(s/s): -7.275958e-12 week: 359 ******** Week 359 almanac for PRN-27 ******** ID: 27 Health: 0 Eccentricity: 0.01433753967 Time of Applicability(s): 233472 Orbital Inclination(rad): 0.9525325608 Rate of Right Ascen(r/s): -7.966046103e-09 SQRT(A) (m 1/2): 5153.617188 Right Ascen at Week(rad): 2.124624437 Argument of Perigee(rad): 0.879965308 Mean Anom(rad): 1.629991283 Af0(s): -3.994473877e-05 Af1(s/s): -1.091394e-11 week: 359 ******** Week 359 almanac for PRN-28 ******** ID: 28 Health: 0 Eccentricity: 0.0004110336304 Time of Applicability(s): 233472 Orbital Inclination(rad): 0.9622457751 Rate of Right Ascen(r/s): -7.771752296e-09 SQRT(A) (m 1/2): 5153.733398 Right Ascen at Week(rad): 0.01929460211 Argument of Perigee(rad): 0.04963379099 Mean Anom(rad): -1.010915436 Af0(s): -0.0004657707275 Af1(s/s): 7.275958e-12 week: 359 ******** Week 359 almanac for PRN-29 ******** ID: 29 Health: 0 Eccentricity: 0.003362178802 Time of Applicability(s): 233472 Orbital Inclination(rad): 0.9618083508 Rate of Right Ascen(r/s): -7.886042771e-09 SQRT(A) (m 1/2): 5153.716309 Right Ascen at Week(rad): 2.213972826 Argument of Perigee(rad): 2.739333907 Mean Anom(rad): 1.49997218 Af0(s): -0.0002924256348 Af1(s/s): 7.275958e-12 week: 359 ******** Week 359 almanac for PRN-30 ******** ID: 30 Health: 0 Eccentricity: 0.008038520813 Time of Applicability(s): 233472 Orbital Inclination(rad): 0.936557589 Rate of Right Ascen(r/s): -8.023191341e-09 SQRT(A) (m 1/2): 5153.699707 Right Ascen at Week(rad): 0.03619048669 Argument of Perigee(rad): -2.322880967 Mean Anom(rad): -1.459837385 Af0(s): 0.00010476073 Af1(s/s): 1.455192e-11 week: 359 ******** Week 359 almanac for PRN-31 ******** ID: 31 Health: 0 Eccentricity: 0.01080703735 Time of Applicability(s): 233472 Orbital Inclination(rad): 0.9550612322 Rate of Right Ascen(r/s): -7.840326581e-09 SQRT(A) (m 1/2): 5153.716309 Right Ascen at Week(rad): 0.06928305125 Argument of Perigee(rad): 0.9386498103 Mean Anom(rad): -2.401664139 Af0(s): -0.0001303856567 Af1(s/s): 3.637979e-12 week: 359 ******** Week 359 almanac for PRN-32 ******** ID: 32 Health: 0 Eccentricity: 0.009318828583 Time of Applicability(s): 233472 Orbital Inclination(rad): 0.9676806211 Rate of Right Ascen(r/s): -7.737465153e-09 SQRT(A) (m 1/2): 5153.680664 Right Ascen at Week(rad): -1.01070309 Argument of Perigee(rad): -2.002285349 Mean Anom(rad): 2.212412629 Af0(s): -6.104761963e-05 Af1(s/s): 1.818989e-11 week: 359